sat.trackr.live / text

‹ back to catalog

MOST

NORAD 27843 · 2003-031D

PAYLOAD ACTIVE UNKNOWN

§ Identity

Operator
Country
CA
Launch date
2003-06-30
Launch site
PLMSC
Launch vehicle
Mass (kg)
RCS (m²)
0.29

Purposes: science

External: N2YO · Heavens-Above · Gunter

§ Orbital elements

Epoch: 2026-05-24T23:31:40.473120Z

Period
101.31 min
Inclination
98.7048°
Eccentricity
0.0009140
Mean motion
14.21316910 rev/d
Perigee alt
814.3 km
Apogee alt
827.5 km
Semi-major
7,199.0 km
B*
4.6410e-5
RAAN
153.0302°
Arg perigee
325.2763°
Mean anomaly
34.7817°
Rev number
18,741

§ Raw data

MOST1 27843U 03031D   26144.98032955  .00000057  00000+0  46410-4 0  99992 27843  98.7048 153.0302 0009140 325.2763  34.7817 14.21316910187417

JSON: /api/v1/satellites/27843 · /tle

For live sub-satellite position, see the globe view (requires WebGL).

§ Visibility from observer

Set your observer location to see the next 7 days of passes ≥ 10°. The values pass through the URL so the page stays shareable.

No JS? Fill the form by hand. The geolocation button needs JavaScript.